Time,TemperatureF,DewpointF,PressureIn,WindDirection,WindDirectionDegrees,WindSpeedMPH,WindSpeedGustMPH,Humidity,HourlyPrecipIn,Conditions,Clouds,dailyrainin,SoftwareType,DateUTC
2013-02-11 00:01:00,38.0,28.0,30.14,WSW,249,0.0,3.0,66,0.00,,,0.00,,2013-02-11 08:01:00,
2013-02-11 00:11:00,38.0,28.0,30.14,WSW,249,0.0,3.0,67,0.00,,,0.00,,2013-02-11 08:11:00,
2013-02-11 00:21:00,38.0,28.0,30.14,WSW,249,0.0,3.0,67,0.00,,,0.00,,2013-02-11 08:21:00,
2013-02-11 00:31:00,37.0,27.0,30.14,WSW,249,0.0,0.0,68,0.00,,,0.00,,2013-02-11 08:31:00,
2013-02-11 00:42:00,37.0,27.0,30.14,WSW,249,0.0,0.0,68,0.00,,,0.00,,2013-02-11 08:42:00,
2013-02-11 00:51:00,37.0,27.0,30.14,WSW,249,0.0,0.0,68,0.00,,,0.00,,2013-02-11 08:51:00,
2013-02-11 01:01:00,37.0,28.0,30.14,WSW,249,0.0,0.0,69,0.00,,,0.00,,2013-02-11 09:01:00,
2013-02-11 01:12:00,37.0,28.0,30.14,WSW,249,0.0,0.0,69,0.00,,,0.00,,2013-02-11 09:12:00,
2013-02-11 01:21:00,37.0,28.0,30.14,WSW,249,0.0,0.0,69,0.00,,,0.00,,2013-02-11 09:21:00,
2013-02-11 01:31:00,37.0,28.0,30.14,WSW,249,0.0,0.0,69,0.00,,,0.00,,2013-02-11 09:31:00,
2013-02-11 01:41:00,37.0,28.0,30.14,WSW,249,0.0,0.0,69,0.00,,,0.00,,2013-02-11 09:41:00,
2013-02-11 01:52:00,36.0,27.0,30.14,WSW,249,0.0,0.0,69,0.00,,,0.00,,2013-02-11 09:52:00,
2013-02-11 02:01:00,36.0,27.0,30.14,WSW,250,0.0,0.0,69,0.00,,,0.00,,2013-02-11 10:01:00,
2013-02-11 02:11:00,36.0,27.0,30.14,WSW,250,0.0,0.0,69,0.00,,,0.00,,2013-02-11 10:11:00,
2013-02-11 02:21:00,37.0,28.0,30.14,WSW,250,0.0,4.0,70,0.00,,,0.00,,2013-02-11 10:21:00,
2013-02-11 02:31:00,37.0,28.0,30.14,WSW,249,0.0,4.0,70,0.00,,,0.00,,2013-02-11 10:31:00,
2013-02-11 02:41:00,37.0,28.0,30.14,WSW,249,0.0,4.0,70,0.00,,,0.00,,2013-02-11 10:41:00,
2013-02-11 02:52:00,36.0,26.0,30.14,WSW,249,0.0,3.0,68,0.00,,,0.00,,2013-02-11 10:52:00,
2013-02-11 03:01:00,36.0,26.0,30.14,WSW,249,0.0,3.0,67,0.00,,,0.00,,2013-02-11 11:01:00,
2013-02-11 03:11:00,36.0,26.0,30.14,WSW,249,0.0,3.0,67,0.00,,,0.00,,2013-02-11 11:11:00,
2013-02-11 03:21:00,35.0,25.0,30.14,WSW,250,0.0,0.0,66,0.00,,,0.00,,2013-02-11 11:21:00,
2013-02-11 03:32:00,35.0,24.0,30.14,WSW,249,3.0,0.0,65,0.00,,,0.00,,2013-02-11 11:32:00,
2013-02-11 03:42:00,35.0,24.0,30.14,WSW,249,2.0,4.0,65,0.00,,,0.00,,2013-02-11 11:42:00,
2013-02-11 03:52:00,35.0,24.0,30.14,WSW,249,2.0,4.0,65,0.00,,,0.00,,2013-02-11 11:52:00,
2013-02-11 04:02:00,35.0,24.0,30.14,WSW,249,3.0,4.0,63,0.00,,,0.00,,2013-02-11 12:02:00,
2013-02-11 04:12:00,35.0,24.0,30.14,WSW,249,3.0,4.0,63,0.00,,,0.00,,2013-02-11 12:12:00,
2013-02-11 04:22:00,35.0,23.0,30.14,WSW,249,0.0,4.0,62,0.00,,,0.00,,2013-02-11 12:22:00,
2013-02-11 04:31:00,35.0,23.0,30.17,WSW,249,2.0,3.0,61,0.00,,,0.00,,2013-02-11 12:31:00,
2013-02-11 04:42:00,35.0,23.0,30.17,WSW,249,0.0,4.0,60,0.00,,,0.00,,2013-02-11 12:42:00,
2013-02-11 04:52:00,35.0,23.0,30.17,WSW,249,0.0,4.0,60,0.00,,,0.00,,2013-02-11 12:52:00,
2013-02-11 05:01:00,35.0,23.0,30.17,WSW,249,0.0,4.0,60,0.00,,,0.00,,2013-02-11 13:01:00,
2013-02-11 05:11:00,35.0,22.0,30.17,WSW,249,0.0,3.0,59,0.00,,,0.00,,2013-02-11 13:11:00,
2013-02-11 05:21:00,35.0,22.0,30.17,WSW,249,0.0,3.0,59,0.00,,,0.00,,2013-02-11 13:21:00,
2013-02-11 05:32:00,35.0,22.0,30.17,WSW,249,3.0,3.0,58,0.00,,,0.00,,2013-02-11 13:32:00,
2013-02-11 05:41:00,35.0,22.0,30.17,WSW,249,3.0,3.0,58,0.00,,,0.00,,2013-02-11 13:41:00,
2013-02-11 05:52:00,35.0,22.0,30.17,WSW,249,2.0,3.0,58,0.00,,,0.00,,2013-02-11 13:52:00,
2013-02-11 06:01:00,35.0,22.0,30.17,WSW,249,0.0,3.0,58,0.00,,,0.00,,2013-02-11 14:01:00,
2013-02-11 06:11:00,35.0,22.0,30.17,WSW,249,0.0,3.0,58,0.00,,,0.00,,2013-02-11 14:11:00,
2013-02-11 06:21:00,35.0,22.0,30.17,WSW,249,0.0,3.0,58,0.00,,,0.00,,2013-02-11 14:21:00,
2013-02-11 06:32:00,35.0,22.0,30.21,WSW,249,0.0,4.0,58,0.00,,,0.00,,2013-02-11 14:32:00,
2013-02-11 06:41:00,35.0,22.0,30.21,WSW,249,2.0,3.0,58,0.00,,,0.00,,2013-02-11 14:41:00,
2013-02-11 06:52:00,35.0,22.0,30.21,WSW,249,2.0,3.0,58,0.00,,,0.00,,2013-02-11 14:52:00,
2013-02-11 07:01:00,35.0,21.0,30.21,WSW,249,0.0,3.0,57,0.00,,,0.00,,2013-02-11 15:01:00,
2013-02-11 07:11:00,35.0,21.0,30.21,WSW,249,0.0,3.0,57,0.00,,,0.00,,2013-02-11 15:11:00,
2013-02-11 07:22:00,34.0,20.0,30.21,WSW,249,2.0,3.0,57,0.00,,,0.00,,2013-02-11 15:22:00,
2013-02-11 07:31:00,35.0,21.0,30.21,WSW,249,0.0,3.0,57,0.00,,,0.00,,2013-02-11 15:31:00,
2013-02-11 07:41:00,34.0,20.0,30.21,WSW,249,3.0,3.0,57,0.00,,,0.00,,2013-02-11 15:41:00,
2013-02-11 07:52:00,34.0,20.0,30.21,WSW,249,3.0,3.0,57,0.00,,,0.00,,2013-02-11 15:52:00,
2013-02-11 08:01:00,35.0,22.0,30.24,WSW,249,0.0,4.0,58,0.00,,,0.00,,2013-02-11 16:01:00,
2013-02-11 08:11:00,35.0,22.0,30.24,WSW,249,0.0,4.0,58,0.00,,,0.00,,2013-02-11 16:11:00,
2013-02-11 08:21:00,35.0,22.0,30.24,WSW,249,0.0,3.0,59,0.00,,,0.00,,2013-02-11 16:21:00,
2013-02-11 08:31:00,37.0,24.0,30.23,WSW,249,0.0,0.0,60,0.00,,,0.00,,2013-02-11 16:31:00,
2013-02-11 08:41:00,39.0,26.0,30.23,WSW,249,0.0,0.0,59,0.00,,,0.00,,2013-02-11 16:41:00,
2013-02-11 08:52:00,39.0,26.0,30.23,WSW,249,0.0,0.0,59,0.00,,,0.00,,2013-02-11 16:52:00,
2013-02-11 09:01:00,41.0,26.0,30.26,WSW,249,0.0,3.0,55,0.00,,,0.00,,2013-02-11 17:01:00,
2013-02-11 09:11:00,41.0,26.0,30.26,WSW,249,0.0,3.0,55,0.00,,,0.00,,2013-02-11 17:11:00,
2013-02-11 09:21:00,45.0,22.0,30.26,WSW,249,0.0,3.0,40,0.00,,,0.00,,2013-02-11 17:21:00,
2013-02-11 09:31:00,49.0,21.0,30.26,ENE,73,4.0,6.0,33,0.00,,,0.00,,2013-02-11 17:31:00,
2013-02-11 09:41:00,49.0,21.0,30.26,ENE,73,4.0,6.0,33,0.00,,,0.00,,2013-02-11 17:41:00,
2013-02-11 09:52:00,50.0,20.0,30.26,ENE,62,2.0,5.0,30,0.00,,,0.00,,2013-02-11 17:52:00,
2013-02-11 10:01:00,52.0,19.0,30.26,North,0,0.0,5.0,27,0.00,,,0.00,,2013-02-11 18:01:00,
2013-02-11 10:21:00,55.0,20.0,30.26,WNW,290,3.0,5.0,25,0.00,,,0.00,,2013-02-11 18:21:00,
2013-02-11 10:31:00,57.0,19.0,30.25,NE,38,3.0,5.0,22,0.00,,,0.00,,2013-02-11 18:31:00,
2013-02-11 10:41:00,59.0,17.0,30.25,NE,41,0.0,6.0,19,0.00,,,0.00,,2013-02-11 18:41:00,
2013-02-11 10:53:00,59.0,17.0,30.25,NE,41,0.0,6.0,19,0.00,,,0.00,,2013-02-11 18:53:00,
2013-02-11 11:01:00,60.0,15.0,30.25,NNE,20,0.0,8.0,17,0.00,,,0.00,,2013-02-11 19:01:00,
2013-02-11 11:11:00,60.0,11.0,30.25,NW,325,5.0,6.0,14,0.00,,,0.00,,2013-02-11 19:11:00,
2013-02-11 11:31:00,60.0,11.0,30.25,NE,46,3.0,8.0,14,0.00,,,0.00,,2013-02-11 19:31:00,
2013-02-11 11:41:00,60.0,11.0,30.25,NE,46,3.0,8.0,14,0.00,,,0.00,,2013-02-11 19:41:00,
2013-02-11 11:51:00,60.0,11.0,30.22,NNE,32,6.0,6.0,14,0.00,,,0.00,,2013-02-11 19:51:00,
2013-02-11 12:01:00,61.0,11.0,30.22,ENE,76,3.0,8.0,14,0.00,,,0.00,,2013-02-11 20:01:00,
2013-02-11 12:11:00,62.0,12.0,30.25,NNW,337,6.0,9.0,14,0.00,,,0.00,,2013-02-11 20:11:00,
2013-02-11 12:21:00,62.0,12.0,30.25,NNW,337,6.0,9.0,14,0.00,,,0.00,,2013-02-11 20:21:00,
2013-02-11 12:31:00,63.0,11.0,30.22,NE,41,3.0,9.0,13,0.00,,,0.00,,2013-02-11 20:31:00,
2013-02-11 12:41:00,63.0,11.0,30.22,NNW,342,4.0,9.0,13,0.00,,,0.00,,2013-02-11 20:41:00,
2013-02-11 12:52:00,63.0,11.0,30.22,NNW,342,4.0,9.0,13,0.00,,,0.00,,2013-02-11 20:52:00,
2013-02-11 13:01:00,64.0,8.0,30.22,North,353,4.0,9.0,11,0.00,,,0.00,,2013-02-11 21:01:00,
2013-02-11 13:11:00,65.0,7.0,30.22,NNW,334,3.0,8.0,10,0.00,,,0.00,,2013-02-11 21:11:00,
2013-02-11 13:21:00,65.0,7.0,30.22,NNW,334,3.0,8.0,10,0.00,,,0.00,,2013-02-11 21:21:00,
2013-02-11 13:31:00,66.0,8.0,30.22,WSW,244,2.0,5.0,10,0.00,,,0.00,,2013-02-11 21:31:00,
2013-02-11 13:41:00,66.0,8.0,30.22,WSW,244,2.0,5.0,10,0.00,,,0.00,,2013-02-11 21:41:00,
2013-02-11 13:52:00,67.0,9.0,30.22,South,187,3.0,6.0,10,0.00,,,0.00,,2013-02-11 21:52:00,
2013-02-11 14:01:00,67.0,9.0,30.19,West,265,4.0,6.0,10,0.00,,,0.00,,2013-02-11 22:01:00,
2013-02-11 14:11:00,67.0,9.0,30.19,NE,56,2.0,8.0,10,0.00,,,0.00,,2013-02-11 22:11:00,
2013-02-11 14:21:00,67.0,9.0,30.19,NE,56,2.0,8.0,10,0.00,,,0.00,,2013-02-11 22:21:00,
2013-02-11 14:31:00,67.0,9.0,30.19,NNE,26,0.0,6.0,10,0.00,,,0.00,,2013-02-11 22:31:00,
2013-02-11 14:41:00,67.0,9.0,30.19,NNE,26,0.0,6.0,10,0.00,,,0.00,,2013-02-11 22:41:00,
2013-02-11 14:52:00,66.0,8.0,30.19,NNW,338,3.0,8.0,10,0.00,,,0.00,,2013-02-11 22:52:00,
2013-02-11 15:01:00,67.0,9.0,30.19,East,85,5.0,8.0,10,0.00,,,0.00,,2013-02-11 23:01:00,
2013-02-11 15:31:00,64.0,8.0,30.19,West,273,0.0,5.0,11,0.00,,,0.00,,2013-02-11 23:31:00,
2013-02-11 15:41:00,64.0,8.0,30.19,West,273,0.0,5.0,11,0.00,,,0.00,,2013-02-11 23:41:00,
2013-02-11 15:52:00,64.0,8.0,30.19,NE,49,2.0,5.0,11,0.00,,,0.00,,2013-02-11 23:52:00,
2013-02-11 16:01:00,63.0,8.0,30.19,NNE,15,0.0,5.0,11,0.00,,,0.00,,2013-02-12 00:01:00,
2013-02-11 16:21:00,62.0,7.0,30.19,WSW,253,0.0,4.0,11,0.00,,,0.00,,2013-02-12 00:21:00,
2013-02-11 16:31:00,62.0,7.0,30.19,NNE,17,2.0,3.0,11,0.00,,,0.00,,2013-02-12 00:31:00,
2013-02-11 16:41:00,62.0,7.0,30.19,NNE,17,2.0,3.0,11,0.00,,,0.00,,2013-02-12 00:41:00,
2013-02-11 16:52:00,61.0,8.0,30.19,WSW,253,2.0,4.0,12,0.00,,,0.00,,2013-02-12 00:52:00,
2013-02-11 17:01:00,60.0,7.0,30.19,NW,313,0.0,4.0,12,0.00,,,0.00,,2013-02-12 01:01:00,
2013-02-11 17:21:00,59.0,10.0,30.19,WSW,253,0.0,0.0,14,0.00,,,0.00,,2013-02-12 01:21:00,
2013-02-11 17:31:00,57.0,13.0,30.19,WSW,252,0.0,0.0,17,0.00,,,0.00,,2013-02-12 01:31:00,
2013-02-11 17:41:00,57.0,13.0,30.19,WSW,252,0.0,0.0,17,0.00,,,0.00,,2013-02-12 01:41:00,
2013-02-11 17:51:00,56.0,12.0,30.19,WSW,252,0.0,0.0,17,0.00,,,0.00,,2013-02-12 01:51:00,
2013-02-11 18:01:00,53.0,19.0,30.23,WSW,252,0.0,0.0,26,0.00,,,0.00,,2013-02-12 02:01:00,
2013-02-11 18:11:00,51.0,19.0,30.23,WSW,251,0.0,0.0,28,0.00,,,0.00,,2013-02-12 02:11:00,
2013-02-11 18:21:00,51.0,19.0,30.23,WSW,251,0.0,0.0,28,0.00,,,0.00,,2013-02-12 02:21:00,
2013-02-11 18:31:00,50.0,19.0,30.23,WSW,251,0.0,0.0,29,0.00,,,0.00,,2013-02-12 02:31:00,
2013-02-11 18:41:00,50.0,19.0,30.23,WSW,251,0.0,0.0,29,0.00,,,0.00,,2013-02-12 02:41:00,
2013-02-11 18:52:00,48.0,20.0,30.23,WSW,251,0.0,0.0,33,0.00,,,0.00,,2013-02-12 02:52:00,
2013-02-11 19:01:00,48.0,23.0,30.23,West,264,2.0,3.0,37,0.00,,,0.00,,2013-02-12 03:01:00,
2013-02-11 19:11:00,48.0,23.0,30.23,West,264,0.0,3.0,37,0.00,,,0.00,,2013-02-12 03:11:00,
2013-02-11 19:21:00,48.0,23.0,30.23,West,264,0.0,3.0,37,0.00,,,0.00,,2013-02-12 03:21:00,
2013-02-11 19:31:00,47.0,22.0,30.26,SW,224,2.0,0.0,37,0.00,,,0.00,,2013-02-12 03:31:00,
2013-02-11 19:41:00,46.0,22.0,30.26,SSW,199,3.0,4.0,39,0.00,,,0.00,,2013-02-12 03:41:00,
2013-02-11 19:51:00,46.0,22.0,30.26,SSW,199,3.0,4.0,39,0.00,,,0.00,,2013-02-12 03:51:00,
2013-02-11 20:01:00,45.0,22.0,30.26,SW,220,0.0,4.0,40,0.00,,,0.00,,2013-02-12 04:01:00,
2013-02-11 20:11:00,45.0,22.0,30.26,SW,220,0.0,4.0,40,0.00,,,0.00,,2013-02-12 04:11:00,
2013-02-11 20:21:00,46.0,24.0,30.26,SW,217,0.0,4.0,41,0.00,,,0.00,,2013-02-12 04:21:00,
2013-02-11 20:31:00,45.0,23.0,30.26,SW,217,0.0,4.0,41,0.00,,,0.00,,2013-02-12 04:31:00,
2013-02-11 20:41:00,45.0,23.0,30.26,SW,217,0.0,4.0,41,0.00,,,0.00,,2013-02-12 04:41:00,
2013-02-11 20:52:00,44.0,23.0,30.26,SW,217,0.0,0.0,43,0.00,,,0.00,,2013-02-12 04:52:00,
2013-02-11 21:01:00,43.0,23.0,30.26,SW,217,0.0,0.0,44,0.00,,,0.00,,2013-02-12 05:01:00,
2013-02-11 21:11:00,43.0,24.0,30.26,SW,217,2.0,4.0,46,0.00,,,0.00,,2013-02-12 05:11:00,
2013-02-11 21:21:00,43.0,24.0,30.26,SW,217,2.0,4.0,46,0.00,,,0.00,,2013-02-12 05:21:00,
2013-02-11 21:31:00,42.0,23.0,30.26,SW,217,0.0,3.0,47,0.00,,,0.00,,2013-02-12 05:31:00,
2013-02-11 21:41:00,42.0,23.0,30.26,SW,217,0.0,3.0,47,0.00,,,0.00,,2013-02-12 05:41:00,
2013-02-11 21:52:00,42.0,24.0,30.26,SW,217,0.0,3.0,48,0.00,,,0.00,,2013-02-12 05:52:00,
2013-02-11 22:01:00,42.0,24.0,30.29,SW,217,0.0,3.0,49,0.00,,,0.00,,2013-02-12 06:01:00,
2013-02-11 22:11:00,41.0,23.0,30.29,SW,217,0.0,0.0,49,0.00,,,0.00,,2013-02-12 06:11:00,
2013-02-11 22:21:00,41.0,23.0,30.29,SW,217,0.0,0.0,49,0.00,,,0.00,,2013-02-12 06:21:00,
2013-02-11 22:31:00,41.0,24.0,30.29,SW,217,0.0,3.0,50,0.00,,,0.00,,2013-02-12 06:31:00,
2013-02-11 22:42:00,40.0,23.0,30.29,SW,217,0.0,3.0,50,0.00,,,0.00,,2013-02-12 06:42:00,
2013-02-11 22:52:00,40.0,23.0,30.29,SW,217,0.0,3.0,50,0.00,,,0.00,,2013-02-12 06:52:00,
2013-02-11 23:01:00,40.0,23.0,30.29,SW,217,0.0,0.0,51,0.00,,,0.00,,2013-02-12 07:01:00,
2013-02-11 23:11:00,40.0,23.0,30.29,SW,217,0.0,0.0,51,0.00,,,0.00,,2013-02-12 07:11:00,
2013-02-11 23:21:00,40.0,24.0,30.26,SW,217,0.0,0.0,53,0.00,,,0.00,,2013-02-12 07:21:00,
2013-02-11 23:31:00,41.0,26.0,30.29,SW,217,0.0,0.0,54,0.00,,,0.00,,2013-02-12 07:31:00,
2013-02-11 23:41:00,41.0,26.0,30.29,SW,217,0.0,0.0,54,0.00,,,0.00,,2013-02-12 07:41:00,
2013-02-11 23:51:00,41.0,26.0,30.29,SW,217,2.0,0.0,54,0.00,,,0.00,,2013-02-12 07:51:00,